Location: Stilling
(56.0622°N, 9.9882°E)
Time: 23:54:59
(UTC+00:00)

Cosmos 2366 rocket - Pass Details

Date: 13 July 2020
Orbit: 954 x 998 km, 82.9° (Epoch: 14 August)

Event Time Altitude Azimuth Distance (km) Brightness Sun altitude
Exits shadow 22:49:45 - 204° (SSW) 2,806 5.9 -11.9°
Reaches altitude 10° 22:49:52 10° 205° (SSW) 2,762 5.9 -11.9°
Maximum altitude 22:56:10 64° 286° (WNW) 1,099 4.4 -12.0°
Drops below altitude 10° 23:02:28 10° 8° (N) 2,758 7.7 -12.1°
Sets 23:05:01 0° 12° (NNE) 3,704 8.6 -12.2°
